Wind_Speed
12 12 12 12 12 13 14 15 15 15 15 14 13 12 13 15 14 7 3 7 7 12 11 8 4 3 2 2 2 2 5 8 12 5 3 5 8 4 2 6 4 3 6 8 13
11 11 12 13 13 13 13 14 15 15 15 14 14 13 14 16 12 3 2 9 9 9 7 6 4 4 4 2 2 5 6 7 5 1 2 7 8 5 5 8 9 8 7 8 15
11 11 11 12 12 12 13 14 15 15 15 15 14 13 14 13 8 4 9 8 7 6 8 5 4 4 5 3 4 3 5 5 2 1 1 4 6 3 5 8 10 7 6 10 15
13 13 12 11 12 13 13 14 15 15 15 15 14 13 13 4 7 3 10 6 4 5 5 4 4 4 4 5 1 5 4 4 1 3 3 6 1 4 11 4 3 1 4 8 12
16 15 14 13 13 14 14 14 16 16 16 15 14 12 7 6 2 4 9 6 4 4 4 3 3 3 5 4 4 8 4 4 3 4 7 3 7 9 8 6 5 2 6 8 11
19 17 16 16 16 16 17 17 18 18 19 18 12 9 7 10 3 5 6 4 4 4 3 3 2 3 3 3 5 3 6 8 6 8 7 7 9 1 3 7 8 5 7 9 13
22 20 18 17 18 18 18 18 19 20 23 15 8 6 7 5 1 4 3 2 4 4 5 3 5 5 2 4 2 5 8 11 11 9 6 3 10 12 7 8 6 8 9 11 14
22 19 17 18 19 19 19 20 21 25 15 7 4 6 6 0 2 2 4 4 3 2 3 1 3 1 3 1 4 6 5 6 6 7 4 3 6 2 6 7 8 9 12 13 17
14 17 19 20 20 20 20 20 23 16 6 2 3 5 3 1 3 1 4 6 7 4 3 3 3 3 3 4 7 8 9 7 5 6 2 8 7 3 6 7 9 9 13 13 18
16 17 20 21 20 22 21 20 17 5 1 3 5 6 3 2 2 3 3 3 4 4 4 2 1 2 2 4 4 7 6 4 7 4 5 10 16 14 9 10 10 12 11 11 12
17 17 18 21 18 22 16 7 5 6 6 6 14 8 7 1 3 2 3 6 5 5 7 5 4 5 5 3 6 7 9 11 8 3 4 10 13 10 8 8 9 9 11 10 13
20 19 20 18 17 18 7 5 4 3 8 6 7 6 2 2 4 4 4 3 4 8 1 5 6 4 1 3 4 6 9 9 4 1 3 10 14 6 7 5 2 7 7 9 16
21 16 16 11 12 4 2 2 1 3 6 4 2 4 0 3 4 0 4 1 7 9 8 9 4 1 4 5 6 8 8 7 5 8 8 10 8 2 2 3 5 8 13 12 14
19 11 8 5 1 3 3 2 2 3 3 3 3 2 3 2 3 2 2 3 4 4 4 7 5 3 5 6 3 6 1 2 6 6 3 2 4 5 4 2 8 15 16 15 16
20 11 2 3 6 2 1 3 3 1 5 4 2 3 0 4 4 4 0 3 5 3 3 3 3 4 7 1 2 3 3 5 5 6 8 7 4 5 3 7 15 17 20 18 18
17 9 5 4 6 6 5 4 1 1 5 3 5 4 5 5 3 1 3 2 3 3 5 8 1 2 2 0 3 4 4 4 3 3 4 4 2 4 4 5 13 16 19 20 19
13 11 6 4 3 5 3 2 1 4 1 3 4 1 7 5 3 3 1 2 4 1 3 5 6 2 2 5 2 2 4 2 3 3 1 3 5 4 3 7 5 10 16 19 17
10 10 14 10 5 3 2 2 4 1 4 1 2 3 6 2 3 3 4 4 5 2 2 4 4 1 1 2 2 2 2 2 4 3 4 5 4 4 5 2 2 1 9 17 19
7 4 5 6 4 4 2 1 3 4 3 3 3 3 4 3 3 4 5 3 1 4 3 2 2 4 5 2 3 2 2 2 3 2 3 2 4 5 1 10 12 11 14 16 19
5 1 3 5 3 2 2 3 6 4 5 2 5 1 2 1 3 2 3 3 2 1 1 2 4 1 3 0 5 2 3 2 2 3 5 4 2 3 12 14 14 15 14 16 17
3 2 4 5 2 1 2 5 8 4 4 3 4 5 6 4 2 4 4 4 1 3 2 1 1 3 2 4 1 2 2 1 2 2 3 5 4 1 5 8 11 11 12 14 16
3 1 7 4 1 2 3 5 5 4 3 1 2 3 3 3 3 3 4 2 1 3 2 2 2 4 1 3 2 2 1 2 3 2 1 3 2 2 3 5 6 9 11 12 13
1 1 4 4 2 3 3 4 2 3 2 1 3 3 1 2 4 4 2 1 1 2 1 1 2 3 3 2 2 4 4 2 2 0 4 3 2 1 1 3 6 8 11 11 13
2 1 1 2 1 4 2 3 2 1 3 2 3 2 2 4 5 3 3 1 1 0 3 2 2 5 4 2 2 3 4 7 4 3 3 5 5 3 6 6 8 8 10 11 11
2 3 1 2 3 4 2 1 3 3 2 2 3 5 4 4 3 5 2 2 4 5 1 1 3 2 9 6 4 4 5 9 7 5 4 3 3 6 3 4 5 7 9 11 12
4 2 1 1 2 4 4 3 3 1 2 3 5 5 4 5 5 3 3 4 3 6 2 1 1 2 4 2 6 8 10 11 9 8 12 10 9 5 2 1 3 6 9 11 12
6 1 2 3 3 3 4 4 3 2 4 4 2 4 7 6 1 2 3 3 2 3 6 3 2 2 2 1 5 8 5 11 6 7 4 4 4 6 3 2 3 6 8 9 11
Wind_Direction
2 1 359 359 360 355 356 354 352 348 342 338 336 331 332 328 331 269 276 330 314 317 316 307 261 275 250 201 231 254 250 255 256 249 111 146 195 166 57 247 209 212 290 344 334
347 352 350 350 352 353 352 352 351 350 345 342 339 333 330 329 315 258 329 323 309 309 317 320 291 279 224 212 205 238 254 287 9 285 248 180 223 183 221 209 228 235 241 323 328
329 333 337 342 346 346 343 347 348 348 346 339 336 330 328 330 279 90 328 329 311 307 298 288 276 273 244 236 183 185 256 6 226 245 284 199 236 202 236 257 240 276 320 320 323
310 315 319 328 335 334 336 339 340 339 337 332 329 328 328 308 319 22 348 345 341 323 286 275 246 248 269 248 183 270 243 269 319 218 212 196 297 243 238 260 74 111 312 308 328
297 301 308 316 322 326 326 330 332 331 331 326 322 328 323 260 288 1 353 337 310 296 340 314 316 300 265 289 277 249 278 257 260 239 248 261 227 255 253 235 179 252 283 322 316
287 290 298 308 314 318 321 325 327 323 324 320 315 322 283 279 86 350 338 319 334 301 329 335 350 341 288 279 264 357 272 258 238 243 253 246 259 286 239 183 221 268 298 302 318
281 283 291 301 306 309 314 319 320 319 316 310 305 302 265 306 141 355 340 314 317 317 291 353 329 262 23 291 292 281 281 246 234 232 251 300 253 229 254 192 238 264 283 309 322
284 282 289 296 297 300 305 312 316 315 312 294 290 278 286 64 257 275 332 284 347 295 288 313 7 316 259 57 232 251 242 261 115 193 135 198 276 157 178 211 246 278 305 318 329
311 298 289 293 296 291 298 310 312 310 304 255 271 250 287 167 241 304 354 322 301 273 267 279 280 261 191 224 270 208 265 220 172 204 165 217 289 100 200 235 269 297 303 329 330
320 310 299 292 288 283 294 310 301 293 221 231 260 257 166 356 310 294 312 312 298 269 234 241 274 276 258 216 243 277 265 257 266 124 229 247 259 272 222 232 266 281 321 330 318
313 310 309 295 280 277 290 313 238 208 216 279 300 278 306 346 260 228 313 296 253 242 250 188 251 238 254 304 320 296 277 276 278 101 284 257 276 283 267 278 262 302 323 330 320
313 308 310 300 273 261 265 272 20 338 294 226 266 268 275 304 268 184 315 268 225 271 255 212 260 50 266 245 256 262 278 289 296 125 264 292 287 310 285 250 235 265 315 343 318
320 309 313 324 256 207 218 88 60 6 267 209 225 268 316 271 285 165 320 329 269 277 259 277 36 70 266 252 262 268 265 295 292 322 269 289 256 202 191 206 289 340 354 333 321
342 316 313 305 170 141 89 162 131 92 287 174 171 121 197 281 239 15 13 297 228 297 319 283 81 258 253 265 283 284 69 298 311 319 314 1 292 183 182 249 347 354 345 328 333
6 23 111 139 119 76 150 144 122 84 277 36 108 8 278 260 350 154 145 231 268 287 262 46 234 246 256 301 253 334 327 302 289 277 316 169 250 113 170 332 344 351 335 336 329
10 14 81 81 72 100 111 122 84 109 236 11 353 344 294 200 217 195 223 218 318 267 231 282 65 281 340 208 261 328 305 234 269 255 245 117 282 133 35 311 315 335 326 334 330
7 7 41 82 83 120 88 295 258 241 114 212 206 251 259 270 259 248 65 241 262 240 200 188 206 139 301 253 176 290 300 274 220 196 316 174 264 33 32 344 315 307 319 328 334
3 22 54 81 108 103 358 221 254 307 243 24 267 240 257 358 221 264 269 256 209 239 288 282 214 228 42 17 341 3 312 302 301 330 350 182 244 107 47 336 154 340 328 334 334
344 1 38 35 86 17 79 228 277 310 0 336 262 256 221 191 273 287 235 300 37 181 220 299 169 117 54 40 324 98 249 23 289 199 262 161 133 138 357 11 353 352 341 336 334
327 10 35 355 360 26 75 251 263 8 332 301 280 193 286 357 290 260 278 84 168 138 128 53 278 165 127 268 61 316 110 241 169 304 292 155 230 45 347 346 345 346 344 330 334
288 251 4 347 3 343 264 265 308 52 348 319 327 284 251 265 194 275 284 125 230 140 171 134 245 117 174 202 18 161 192 171 294 298 305 313 92 76 337 336 332 332 337 328 334
286 258 343 6 138 41 239 314 352 341 32 7 323 278 253 218 242 249 270 27 150 139 166 99 314 263 6 89 33 285 283 259 258 120 223 294 319 96 28 334 322 333 333 334 334
255 82 9 14 214 216 239 269 266 295 305 339 276 236 280 272 298 231 251 37 187 197 35 118 207 271 209 180 188 229 176 144 109 254 225 284 55 215 323 13 5 345 340 343 339
213 278 62 30 331 287 280 274 260 188 271 276 293 267 280 252 219 291 237 237 194 323 66 199 275 258 320 351 85 191 195 195 215 241 141 242 324 33 5 9 349 350 345 347 349
232 238 205 203 218 207 194 324 277 289 231 220 246 238 260 284 266 234 177 185 218 183 219 267 256 234 271 270 221 252 205 183 199 232 248 38 294 334 360 356 321 323 350 355 1
173 185 223 239 150 164 193 247 256 117 226 270 235 292 257 250 243 314 202 199 208 167 160 75 257 293 267 198 250 262 243 208 215 258 258 269 282 171 136 182 325 360 358 360 1
185 177 229 159 187 168 208 219 223 166 241 245 276 307 259 279 116 53 50 36 303 181 182 176 250 273 272 342 302 268 222 187 179 213 205 206 89 149 148 98 19 359 4 360 355
Height
810 807 805 802 799 798 796 794 792 790 787 785 781 779 776 773 770 769 765 770 767 766 763 759 760 758 757 756 756 756 751 738 729 735 734 748 750 755 756 756 764 764 765 767 770
810 807 805 802 800 797 796 794 792 789 787 784 781 778 776 772 770 765 770 768 767 764 762 758 754 755 751 753 755 753 744 728 738 739 742 748 751 751 759 755 759 762 764 768 770
810 807 804 801 798 797 796 793 790 787 785 783 780 777 774 772 767 765 768 766 765 763 763 760 757 754 751 752 751 747 744 742 746 748 749 750 756 756 758 755 753 757 765 770 770
808 806 803 800 798 796 793 791 789 786 783 781 778 775 772 771 766 769 767 765 764 763 762 759 754 752 752 751 750 755 745 748 750 753 754 752 755 761 759 756 761 765 770 770 768
805 804 801 799 797 794 791 789 787 784 781 779 776 774 772 766 760 767 767 766 764 763 760 757 752 752 751 751 753 752 747 753 754 757 756 755 758 757 756 758 765 766 768 766 768
803 801 799 797 795 793 791 788 785 783 780 777 775 775 772 766 766 767 766 766 764 762 760 757 756 756 753 753 755 753 754 752 753 754 755 757 753 763 753 757 764 764 763 765 764
799 798 797 795 793 791 789 787 784 780 778 775 775 775 771 764 765 766 765 765 764 764 761 761 761 758 757 756 756 756 757 746 748 752 754 758 754 754 753 760 760 761 760 760 760
795 793 793 792 790 789 787 784 781 778 774 772 773 775 763 768 767 766 766 765 765 763 764 765 764 762 761 761 758 756 754 744 750 754 757 761 738 747 754 759 758 757 757 756 758
791 790 790 789 788 787 784 781 778 774 772 772 773 772 761 766 767 766 766 765 765 764 764 765 766 762 764 757 750 743 735 733 740 751 753 759 744 751 756 759 757 756 757 758 759
789 788 787 785 784 784 782 780 776 774 772 772 772 773 767 762 766 766 766 765 763 763 762 764 766 765 760 755 749 731 737 733 741 750 755 754 748 744 747 755 757 761 755 762 761
786 783 782 780 780 779 780 778 775 770 770 761 760 762 761 764 766 763 765 764 762 761 753 758 757 757 741 746 747 750 747 743 739 749 760 752 746 744 745 749 753 754 758 760 758
783 780 777 775 774 776 778 777 777 780 770 760 762 763 764 765 761 760 763 761 756 748 749 750 743 746 752 754 754 751 749 741 743 757 762 747 745 746 749 751 759 761 758 761 758
779 776 774 772 771 774 775 778 777 778 772 755 759 761 762 766 758 757 762 757 752 746 744 744 744 755 757 755 754 748 749 748 752 750 747 753 735 755 752 751 748 746 753 759 758
776 773 772 772 776 776 777 777 778 777 774 760 760 763 764 763 761 764 764 763 752 747 746 745 751 756 756 755 758 755 758 763 762 759 741 748 729 741 744 749 735 748 756 757 755
779 774 772 771 774 776 780 778 777 778 767 760 762 767 764 764 762 762 766 763 753 747 752 747 751 755 755 754 761 755 766 766 765 759 760 745 754 733 735 742 741 754 757 755 754
782 780 775 775 775 779 779 779 780 779 758 761 766 764 763 759 758 761 760 763 761 754 751 749 759 759 759 763 765 768 767 764 765 757 750 755 751 716 744 759 757 763 760 757 753
785 781 778 775 780 780 781 782 778 768 773 768 765 773 767 755 754 756 771 759 760 758 754 750 751 762 766 759 766 763 758 740 737 742 719 758 749 739 748 755 769 771 764 761 754
786 783 783 779 782 782 782 777 774 757 757 767 766 760 762 755 754 753 753 750 762 764 754 740 738 757 765 766 765 765 765 750 730 714 715 759 738 734 749 754 765 766 769 763 754
786 786 786 785 784 784 781 782 768 757 762 762 758 759 752 757 765 756 745 747 758 769 761 752 739 766 770 769 774 764 762 777 765 770 746 709 725 744 739 748 757 761 766 763 756
789 787 789 786 786 785 783 780 765 765 766 763 761 760 759 754 760 757 745 759 767 768 771 768 756 761 772 775 776 772 777 764 765 736 717 708 716 714 751 762 763 765 769 765 758
789 781 791 788 786 784 781 773 766 775 774 772 769 762 762 760 768 755 754 763 767 771 772 773 774 764 769 766 756 774 771 776 769 765 733 713 714 761 769 773 774 773 774 770 761
787 783 791 788 786 791 787 779 784 774 780 782 785 780 776 774 765 765 758 766 770 769 774 770 774 756 748 774 778 774 765 763 749 755 766 764 728 767 773 777 777 777 775 772 765
785 789 793 790 788 788 784 786 788 781 780 785 783 785 786 774 767 762 763 776 776 773 777 776 767 748 754 777 779 772 769 778 783 779 752 742 722 759 760 769 773 777 778 774 766
786 788 794 795 796 785 787 783 783 788 788 787 783 784 781 772 771 770 770 780 779 781 780 779 774 765 736 752 763 771 775 777 771 755 751 741 741 748 755 770 773 778 780 775 770
785 786 782 789 790 792 792 790 783 782 791 789 782 782 777 773 776 773 775 786 782 782 784 781 772 769 756 754 765 764 769 784 787 758 757 762 771 757 769 778 782 783 781 777 773
784 786 786 782 786 791 793 785 784 784 788 778 784 776 780 778 771 766 775 778 772 781 787 792 766 768 757 760 765 766 758 765 782 771 762 763 763 763 774 777 778 780 783 780 778
779 780 780 783 789 788 782 780 781 785 783 783 786 784 779 779 781 785 783 784 779 781 784 788 781 767 737 759 770 742 752 758 765 769 751 751 750 762 768 772 779 781 783 784 783